Carbondale, IL

7:49 AM CST on December 13, 2017 (GMT -0600)
Southern Illinois

Weather History for KMDH - November, 2012

Change the Weather History Date:

Tuesday, November 27, 2012

  Actual Average Record
Temperature  
Mean Temperature 33 °F -  
Max Temperature 41 °F 51 °F 77 °F (1910)
Min Temperature 21 °F 34 °F 9 °F (1977)
Degree Days  
Heating Degree Days 32    
Moisture  
Dew Point 23 °F    
Average Humidity 73    
Maximum Humidity 92    
Minimum Humidity 51    
Precipitation  
Precipitation 0.00 in - - ()
Sea Level Pressure  
Sea Level Pressure 30.39 in    
Wind  
Wind Speed 6 mph (NNW)    
Max Wind Speed 12 mph    
Max Gust Speed -    
Visibility 10 miles    
Events      
Averages and records for this station are not official NWS values.
T = Trace of Precipitation, MM = Missing Value Source: NWS Daily Summary

Daily Weather History Graph

Daily Weather History Graph

Search for Another Location

Airport or City:

Trip Planner

Search our weather history database for the weather conditions in past years. The results will help you decide how hot, cold, wet, or windy it might be!

Date:

Astronomy

Nov. 27, 2012 Rise Set
Actual Time 6:50 AM CST 4:39 PM CST
Civil Twilight 6:21 AM CST 5:07 PM CST
Nautical Twilight 5:49 AM CST 5:40 PM CST
Astronomical Twilight 5:17 AM CST 6:11 PM CST
Moon 4:10 PM CST (11/27) 5:55 AM CST (11/27)
Length of Visible Light 10h 46m
Length of Day
9h 48m
Waxing Gibbous, 99% of the Moon is Illuminated
Nov 27
Waxing Gibbous
Nov 28
Full
Dec 6
Last Quarter
Dec 13
New
Dec 19
First Quarter

Hourly Weather History & Observations

Time (CST) Temp. Windchill Dew Point Humidity Pressure Visibility Wind Dir Wind Speed Gust Speed Precip Events Conditions
12:52 AM 32.0 °F 24.8 °F 25.0 °F 75% 30.35 in 10.0 mi NNW 8.1 mph - N/A   Clear
1:52 AM 30.9 °F 21.7 °F 25.0 °F 79% 30.37 in 10.0 mi NNW 11.5 mph - N/A   Clear
2:52 AM 28.9 °F 21.1 °F 24.1 °F 82% 30.37 in 10.0 mi NNW 8.1 mph - N/A   Clear
3:52 AM 27.0 °F 21.6 °F 23.0 °F 85% 30.36 in 10.0 mi NW 4.6 mph - N/A   Clear
4:52 AM 26.1 °F 18.4 °F 21.9 °F 84% 30.36 in 10.0 mi NNW 6.9 mph - N/A   Clear
6:52 AM 25.0 °F 18.1 °F 19.9 °F 81% 30.42 in 10.0 mi NNW 5.8 mph - N/A   Clear
7:52 AM 26.1 °F 16.8 °F 21.0 °F 81% 30.43 in 10.0 mi NNW 9.2 mph - N/A   Clear
8:52 AM 30.0 °F 22.4 °F 23.0 °F 75% 30.44 in 10.0 mi North 8.1 mph - N/A   Clear
9:52 AM 34.0 °F 28.0 °F 25.0 °F 70% 30.46 in 10.0 mi North 6.9 mph - N/A   Clear
10:52 AM 36.0 °F 31.1 °F 25.0 °F 64% 30.45 in 10.0 mi NNE 5.8 mph - N/A   Clear
11:52 AM 39.0 °F 33.4 °F 26.1 °F 60% 30.42 in 10.0 mi North 8.1 mph - N/A   Clear
12:52 PM 39.9 °F 35.8 °F 25.0 °F 55% 30.40 in 10.0 mi NNW 5.8 mph - N/A   Clear
1:52 PM 39.9 °F 36.7 °F 25.0 °F 55% 30.37 in 10.0 mi WNW 4.6 mph - N/A   Clear
2:52 PM 41.0 °F 39.0 °F 24.1 °F 51% 30.36 in 10.0 mi NNW 3.5 mph - N/A   Clear
3:52 PM 39.9 °F 37.8 °F 24.1 °F 53% 30.36 in 10.0 mi NW 3.5 mph - N/A   Clear
4:52 PM 37.9 °F - 23.0 °F 55% 30.37 in 10.0 mi Calm Calm - N/A   Clear
5:52 PM 32.0 °F - 23.0 °F 69% 30.37 in 10.0 mi Calm Calm - N/A   Clear
6:52 PM 30.0 °F - 23.0 °F 75% 30.38 in 10.0 mi Calm Calm - N/A   Clear
7:52 PM 28.0 °F - 23.0 °F 81% 30.37 in 10.0 mi Calm Calm - N/A   Clear
8:52 PM 26.1 °F - 23.0 °F 88% 30.37 in 9.0 mi Calm Calm - N/A   Clear
9:52 PM 25.0 °F - 21.9 °F 88% 30.38 in 8.0 mi Calm Calm - N/A   Clear
10:52 PM 25.0 °F - 21.9 °F 88% 30.38 in 7.0 mi Calm Calm - N/A   Clear
11:52 PM 21.0 °F 16.2 °F 19.0 °F 92% 30.38 in 7.0 mi SSW 3.5 mph - N/A   Clear